Hourly Data Report for February 10, 2019

TORONTO INTL A
ONTARIO
Current Station Operator: NAVCAN

43°40'36.000" N
79°37'50.000" W
173.40 m
6158731
71624
YYZ

Download Data

Hourly Data (February 2019)
Hourly Data Report for February 10, 2019
TIME
LST
Temp Definition
°C
Dew Point Definition
°C
Rel Hum Definition
%
Precip. Amount Definition
mm

Wind Dir Definition
10's deg

Wind Spd Definition
km/h
Visibility Definition
km
Stn Press Definition
kPa
Hmdx Definition


Wind Chill Definition


Weather Definition


00:00 -9.1 -14.2 67   27 11 24.1 101.87   -15 LegendNANA
01:00 -9.4 -14.3 68   26 7 24.1 101.83   -13 Mostly Cloudy
02:00 -9.0 -13.8 68   23 8 24.1 101.79   -13 LegendNANA
03:00 -8.9 -13.8 68   24 8 24.1 101.80   -13 LegendNANA
04:00 -8.8 -13.8 68   23 9 24.1 101.79   -13 Mostly Cloudy
05:00 -9.4 -14.2 68   25 14 24.1 101.74   -16 LegendNANA
06:00 -9.4 -14.0 69   23 13 24.1 101.68   -15 LegendNANA
07:00 -9.2 -13.7 70   25 14 24.1 101.63   -16 Mostly Cloudy
08:00 -9.0 -13.3 71   24 10 24.1 101.60   -14 LegendNANA
09:00 -7.7 -12.2 71   24 13 24.1 101.58   -13 LegendNANA
10:00 -6.3 -11.3 68   25 17 24.1 101.51   -13 Mostly Cloudy
11:00 -5.4 -10.9 65   25 12 24.1 101.44   -10 LegendNANA
12:00 -3.7 -9.9 62   25 14 24.1 101.41   -9 LegendNANA
13:00 -4.2 -11.1 59   25 6 24.1 101.34   -7 Cloudy
14:00 -4.1 -11.4 57   35 8 24.1 101.13   -8 LegendNANA
15:00 -4.0 -12.1 53   36 4 24.1 101.07   -6 LegendNANA
16:00 -3.5 -12.1 52   3 10 24.1 101.01   -7 Cloudy
17:00 -3.7 -12.8 50   4 12 24.1 100.92   -8 LegendNANA
18:00 -4.0 -12.8 51   16 10 24.1 100.89   -8 LegendNANA
19:00 -4.3 -11.0 60   14 8 24.1 100.86   -8 Cloudy
20:00 -4.2 -10.5 62   14 8 24.1 100.82   -8 Snow
21:00 -4.9 -10.2 66   6 11 9.7 100.76   -9 Snow
22:00 -5.1 -9.6 71   3 12 8.1 100.72   -10 Snow
23:00 -5.0 -8.8 75   5 9 6.4 100.67   -9 Snow

Notes on Data Quality.

Legend

  • E = Estimated
  • M = Missing
  • NA = Not Available*
  • [empty] = Indicates an unobserved value
Date modified: